GW0881 Weather Reports


Display with metric or nautical units.
time (UTC)temp
F
wind
direction
speed
MPH
gust
MPH
rain 1hr
in
rain 24hr
in
rain mn
in
humidity
%
barometer
mb
20260505223808 48 266 3.0 3.0 0.00 0.00 0.00 42 1008.9
20260505223306 48 334 5.0 6.0 0.00 0.00 0.00 42 1009.0
20260505222801 48 277 7.0 8.0 0.00 0.00 0.00 41 1009.0
20260505222257 48 287 7.0 9.0 0.00 0.00 0.00 41 1009.0
20260505221755 48 276 5.0 7.0 0.00 0.00 0.00 41 1009.0
20260505221251 48 359 7.0 8.0 0.00 0.00 0.00 42 1009.2
20260505220748 48 277 7.0 9.0 0.00 0.00 0.00 41 1008.9
20260505220245 48 286 5.0 6.0 0.00 0.00 0.00 41 1008.8
20260505215743 48 280 3.0 3.0 0.00 0.00 0.00 42 1009.1
20260505215241 48 277 6.0 7.0 0.00 0.00 0.00 42 1009.0
20260505214739 48 312 6.0 9.0 0.00 0.00 0.00 41 1009.2
20260505214236 48 316 5.0 7.0 0.00 0.00 0.00 41 1009.1
20260505213733 49 279 5.0 6.0 0.00 0.00 0.00 41 1009.0
20260505213230 50 259 5.0 6.0 0.00 0.00 0.00 40 1009.3
20260505212726 48 315 5.0 6.0 0.00 0.00 0.00 43 1009.2
20260505212224 47 296 3.0 3.0 0.00 0.00 0.00 43 1009.3
20260505211720 47 312 10.0 10.0 0.00 0.00 0.00 42 1009.2
20260505211218 47 307 8.0 10.0 0.00 0.00 0.00 43 1009.2
20260505210714 47 302 6.0 6.0 0.00 0.00 0.00 42 1009.3
20260505210211 47 297 4.0 6.0 0.00 0.00 0.00 43 1009.4
20260505205709 48 306 4.0 5.0 0.00 0.00 0.00 43 1009.4
20260505205207 47 324 5.0 6.0 0.00 0.00 0.00 42 1009.5
20260505204703 48 293 4.0 5.0 0.00 0.00 0.00 44 1009.5
20260505204201 48 320 3.0 5.0 0.00 0.00 0.00 43 1009.2
20260505203658 48 280 4.0 5.0 0.00 0.00 0.00 43 1009.3
20260505203154 48 323 5.0 6.0 0.00 0.00 0.00 42 1009.3
20260505202650 48 318 6.0 7.0 0.00 0.00 0.00 42 1009.3
20260505202146 47 263 4.0 5.0 0.00 0.00 0.00 42 1009.3
20260505201643 48 264 8.0 9.0 0.00 0.00 0.00 42 1009.5
20260505201141 49 283 4.0 5.0 0.00 0.00 0.00 40 1009.4
20260505200639 48 316 4.0 5.0 0.00 0.00 0.00 43 1009.5
20260505200135 48 300 3.0 5.0 0.00 0.00 0.00 41 1009.6
20260505195632 48 285 10.0 13.0 0.00 0.00 0.00 43 1009.4
20260505195129 48 302 9.0 10.0 0.00 0.00 0.00 42 1009.3
20260505194626 48 314 4.0 6.0 0.00 0.00 0.00 43 1009.5
20260505194122 49 293 2.0 2.0 0.00 0.00 0.00 40 1009.5
20260505193619 47 288 4.0 5.0 0.00 0.00 0.00 43 1009.4
20260505193116 47 271 4.0 5.0 0.00 0.00 0.00 42 1009.4
20260505192614 48 299 8.0 9.0 0.00 0.00 0.00 41 1009.4
20260505192112 48 350 5.0 7.0 0.00 0.00 0.00 42 1009.5
20260505191610 47 31 8.0 10.0 0.00 0.00 0.00 42 1009.4
20260505191107 47 249 4.0 5.0 0.00 0.00 0.00 43 1009.3
20260505190602 47 324 4.0 5.0 0.00 0.00 0.00 42 1009.6
20260505190058 47 326 5.0 6.0 0.00 0.00 0.00 42 1009.4
20260505185555 47 311 7.0 8.0 0.00 0.00 0.00 42 1009.5
20260505185051 47 308 9.0 10.0 0.00 0.00 0.00 42 1009.5
20260505184548 47 335 4.0 6.0 0.00 0.00 0.00 42 1009.3
20260505184045 47 273 8.0 8.0 0.00 0.00 0.00 42 1009.5
20260505183542 47 273 7.0 9.0 0.00 0.00 0.00 42 1009.5
20260505183039 47 305 5.0 6.0 0.00 0.00 0.00 41 1009.4
20260505182535 47 252 6.0 9.0 0.00 0.00 0.00 42 1009.3
20260505182032 46 273 4.0 5.0 0.00 0.00 0.00 41 1009.4
20260505181529 47 283 4.0 5.0 0.00 0.00 0.00 41 1009.5
20260505181027 47 304 7.0 8.0 0.00 0.00 0.00 41 1009.4
20260505180522 47 270 5.0 6.0 0.00 0.00 0.00 41 1009.4
20260505180021 46 23 5.0 5.0 0.00 0.00 0.00 45 1009.3
20260505175520 47 323 6.0 8.0 0.00 0.00 0.00 42 1009.4
20260505175018 47 271 3.0 3.0 0.00 0.00 0.00 42 1009.3
20260505174514 46 308 4.0 6.0 0.00 0.00 0.00 43 1009.4
20260505174010 46 8 5.0 8.0 0.00 0.00 0.00 44 1009.5
20260505173507 46 297 6.0 7.0 0.00 0.00 0.00 43 1009.5
20260505173004 46 290 6.0 6.0 0.00 0.00 0.00 45 1009.5
20260505172502 46 13 5.0 6.0 0.00 0.00 0.00 44 1009.4
20260505171957 46 358 7.0 9.0 0.00 0.00 0.00 43 1009.3
20260505171453 46 42 11.0 13.0 0.00 0.00 0.00 44 1009.5
20260505170950 47 269 4.0 5.0 0.00 0.00 0.00 43 1009.5
20260505170447 46 285 5.0 7.0 0.00 0.00 0.00 43 1009.5
20260505165942 47 271 6.0 6.0 0.00 0.00 0.00 42 1009.6
20260505165438 46 272 3.0 3.0 0.00 0.00 0.00 47 1009.5
20260505164934 45 286 7.0 8.0 0.00 0.00 0.00 46 1009.5
20260505164431 45 340 4.0 5.0 0.00 0.00 0.00 46 1009.5
20260505163929 45 5 5.0 7.0 0.00 0.00 0.00 45 1009.5
20260505163427 44 305 3.0 3.0 0.00 0.00 0.00 44 1009.5
20260505162926 45 330 4.0 5.0 0.00 0.00 0.00 45 1009.4
20260505162421 46 251 6.0 7.0 0.00 0.00 0.00 43 1009.4
20260505161918 46 228 3.0 3.0 0.00 0.00 0.00 45 1009.4
20260505161415 44 344 5.0 6.0 0.00 0.00 0.00 46 1009.3
20260505160913 45 342 3.0 3.0 0.00 0.00 0.00 44 1009.2
20260505160411 44 288 3.0 3.0 0.00 0.00 0.00 47 1009.4
20260505153349 44 26 9.0 11.0 0.00 0.00 0.00 47 1009.8
20260505152846 44 333 8.0 9.0 0.00 0.00 0.00 47 1009.5
20260505152343 43 307 6.0 7.0 0.00 0.00 0.00 47 1009.5
20260505151837 43 27 6.0 8.0 0.00 0.00 0.00 49 1009.6
20260505151334 42 332 9.0 10.0 0.00 0.00 0.00 49 1009.4
20260505150831 43 20 6.0 7.0 0.00 0.00 0.00 48 1009.5
20260505150328 43 271 3.0 5.0 0.00 0.00 0.00 47 1009.6
20260505140253 41 357 3.0 5.0 0.00 0.00 0.00 50 1009.1
20260505130217 39 329 4.0 5.0 0.00 0.00 0.00 54 1008.7
20260505124707 38 314 4.0 5.0 0.00 0.00 0.00 56 1008.4
20260505124203 38 22 6.0 8.0 0.00 0.00 0.00 57 1008.3
20260505123659 37 6 6.0 8.0 0.00 0.00 0.00 56 1008.3
20260505123156 37 23 5.0 7.0 0.00 0.00 0.00 58 1008.1
20260505122653 37 25 4.0 7.0 0.00 0.00 0.00 58 1008.1
20260505122150 37 354 6.0 7.0 0.00 0.00 0.00 59 1007.9
20260505121646 37 321 5.0 5.0 0.00 0.00 0.00 60 1008.1
20260505121143 37 299 4.0 6.0 0.00 0.00 0.00 61 1008.0
20260505120639 37 310 4.0 6.0 0.00 0.00 0.00 63 1008.0
20260505120135 37 10 3.0 5.0 0.00 0.00 0.00 62 1007.9
20260505115629 36 306 2.0 2.0 0.00 0.00 0.00 63 1007.8
20260505115127 36 347 3.0 3.0 0.00 0.00 0.00 63 1007.8
20260505114624 36 346 3.0 5.0 0.00 0.00 0.00 64 1007.6
20260505114120 36 333 3.0 3.0 0.00 0.00 0.00 65 1007.6
20260505113617 36 337 3.0 3.0 0.00 0.00 0.00 65 1007.6
20260505113114 36 332 3.0 3.0 0.00 0.00 0.00 66 1007.6
20260505112610 36 331 3.0 3.0 0.00 0.00 0.00 68 1007.5
20260505112108 35 291 2.0 3.0 0.00 0.00 0.00 69 1007.6
20260505111602 35 330 2.0 2.0 0.00 0.00 0.00 70 1007.5
20260505111058 36 263 1.0 1.0 0.00 0.00 0.00 69 1007.3
20260505110555 36 274 2.0 2.0 0.00 0.00 0.00 69 1007.4
20260505102027 37 306 3.0 3.0 0.00 0.00 0.00 70 1007.2
20260505101526 37 288 2.0 2.0 0.00 0.00 0.00 70 1007.0
20260505101022 37 262 2.0 2.0 0.00 0.00 0.00 70 1006.8
20260505100519 37 271 2.0 2.0 0.00 0.00 0.00 70 1007.0
20260505100016 37 9 3.0 5.0 0.00 0.00 0.00 70 1006.8
20260505095512 37 319 2.0 3.0 0.00 0.00 0.00 70 1007.1
20260505095008 37 331 2.0 3.0 0.00 0.00 0.00 70 1006.9
20260505094505 37 255 2.0 2.0 0.00 0.00 0.00 69 1007.0
20260505094001 38 269 2.0 2.0 0.00 0.00 0.00 69 1007.1
20260505093457 38 271 2.0 2.0 0.00 0.00 0.00 69 1007.0
20260505092955 38 302 3.0 3.0 0.00 0.00 0.00 69 1006.7
20260505092452 38 272 3.0 3.0 0.00 0.00 0.00 68 1006.8
20260505091950 38 293 4.0 5.0 0.00 0.00 0.00 68 1006.9
20260505091447 38 252 2.0 2.0 0.00 0.00 0.00 68 1006.7
20260505090945 38 256 2.0 2.0 0.00 0.00 0.00 67 1006.8
20260505090443 38 301 3.0 3.0 0.00 0.00 0.00 67 1006.5
20260505085940 39 297 4.0 6.0 0.00 0.00 0.00 67 1006.5
20260505085438 39 277 3.0 3.0 0.00 0.00 0.00 66 1006.5
20260505084936 39 287 2.0 2.0 0.00 0.00 0.00 66 1006.4
20260505084434 39 285 3.0 3.0 0.00 0.00 0.00 66 1006.3
20260505083932 39 336 4.0 5.0 0.00 0.00 0.00 66 1006.4
20260505083429 39 304 2.0 2.0 0.00 0.00 0.00 66 1006.2
20260505082925 39 326 4.0 5.0 0.00 0.00 0.00 65 1006.0
20260505082421 39 290 3.0 3.0 0.00 0.00 0.00 65 1005.9
20260505081918 39 294 3.0 3.0 0.00 0.00 0.00 65 1005.9
20260505081415 39 313 2.0 2.0 0.00 0.00 0.00 64 1006.0
20260505080911 39 292 3.0 3.0 0.00 0.00 0.00 64 1005.8
20260505080407 39 314 3.0 3.0 0.00 0.00 0.00 63 1005.8
20260505075903 39 296 3.0 3.0 0.00 0.00 0.00 63 1005.8
20260505075400 39 272 2.0 2.0 0.00 0.00 0.00 63 1005.8
20260505074857 40 300 3.0 3.0 0.00 0.00 0.00 61 1005.8
20260505074354 40 309 2.0 2.0 0.00 0.00 0.00 61 1005.9
20260505073852 40 308 3.0 3.0 0.00 0.00 0.00 61 1006.0
20260505073349 40 332 3.0 5.0 0.00 0.00 0.00 60 1005.8
20260505072846 40 259 3.0 3.0 0.00 0.00 0.00 60 1005.8
20260505072342 40 299 3.0 3.0 0.00 0.00 0.00 60 1005.7
20260505071838 40 290 3.0 3.0 0.00 0.00 0.00 60 1005.8
20260505071335 40 305 4.0 5.0 0.00 0.00 0.00 60 1005.6
20260505070833 40 292 3.0 3.0 0.00 0.00 0.00 61 1005.7
20260505070329 40 283 3.0 3.0 0.00 0.00 0.00 60 1005.7
20260505065825 41 275 2.0 2.0 0.00 0.00 0.00 59 1005.7
20260505065321 41 262 2.0 2.0 0.00 0.00 0.00 58 1005.7
20260505064819 41 294 5.0 6.0 0.00 0.00 0.00 57 1005.9
20260505064316 41 242 2.0 2.0 0.00 0.00 0.00 58 1005.8
20260505063814 41 251 2.0 2.0 0.00 0.00 0.00 57 1005.6
20260505063310 41 275 2.0 2.0 0.00 0.00 0.00 57 1005.7
20260505062806 41 248 1.0 2.0 0.00 0.00 0.00 57 1005.7
20260505062304 42 286 3.0 3.0 0.00 0.00 0.00 56 1005.8
20260505061800 42 287 3.0 3.0 0.00 0.00 0.00 56 1005.8
20260505061259 42 271 3.0 3.0 0.00 0.00 0.00 57 1005.6
20260505060756 42 250 1.0 2.0 0.00 0.00 0.00 57 1005.6
20260505060253 41 261 2.0 2.0 0.00 0.00 0.00 58 1005.7
20260505055748 42 307 5.0 6.0 0.00 0.00 0.00 57 1005.5
20260505055244 42 269 2.0 2.0 0.00 0.00 0.00 57 1005.8
20260505054742 42 236 3.0 3.0 0.00 0.00 0.00 57 1005.6
20260505054239 42 274 4.0 5.0 0.00 0.00 0.00 56 1005.6
20260505053738 42 274 2.0 2.0 0.00 0.00 0.00 56 1005.5
20260505053234 42 318 3.0 3.0 0.00 0.00 0.00 56 1005.5
20260505052731 42 312 3.0 3.0 0.00 0.00 0.00 56 1005.5
20260505052228 42 256 2.0 2.0 0.00 0.00 0.00 57 1005.4
20260505051725 42 262 1.0 1.0 0.00 0.00 0.00 56 1005.5
20260505051223 42 282 2.0 2.0 0.00 0.00 0.00 55 1005.5
20260505050721 43 242 1.0 1.0 0.00 0.00 0.00 55 1005.2
20260505050219 43 258 1.0 2.0 0.00 0.00 0.00 54 1005.1
20260505041642 43 272 2.0 2.0 0.00 0.00 0.00 55 1005.1
20260505041140 43 309 3.0 3.0 0.00 0.00 0.00 55 1005.1
20260505040637 43 282 3.0 3.0 0.00 0.00 0.00 55 1005.0
20260505040134 43 266 2.0 2.0 0.00 0.00 0.00 55 1004.9
20260505035630 43 273 2.0 2.0 0.00 0.00 0.00 55 1005.0
20260505035126 44 275 2.0 2.0 0.00 0.00 0.00 55 1005.0
20260505034623 44 274 2.0 2.0 0.00 0.00 0.00 54 1005.0
20260505034120 44 263 2.0 2.0 0.00 0.00 0.00 53 1004.9
20260505033617 44 253 2.0 2.0 0.00 0.00 0.00 53 1005.0
20260505033116 44 309 2.0 3.0 0.00 0.00 0.00 52 1004.9
20260505032613 44 296 3.0 3.0 0.00 0.00 0.00 51 1004.8
20260505032109 44 265 2.0 2.0 0.00 0.00 0.00 51 1004.8
20260505031606 45 291 3.0 3.0 0.00 0.00 0.00 51 1004.8
20260505031102 45 288 2.0 2.0 0.00 0.00 0.00 51 1004.7
20260505030559 45 257 2.0 2.0 0.00 0.00 0.00 51 1004.8
20260505030050 45 284 2.0 2.0 0.00 0.00 0.00 50 1004.7
20260505025546 45 270 2.0 2.0 0.00 0.00 0.00 49 1004.6
20260505025045 45 240 3.0 5.0 0.00 0.00 0.00 48 1004.7
20260505024542 46 254 2.0 2.0 0.00 0.00 0.00 49 1004.6
20260505024039 45 282 2.0 2.0 0.00 0.00 0.00 49 1004.5
20260505023536 46 290 2.0 2.0 0.00 0.00 0.00 48 1004.4
20260505023033 46 310 3.0 5.0 0.00 0.00 0.00 48 1004.5
20260505022531 46 287 2.0 3.0 0.00 0.00 0.00 47 1004.5
20260505022028 46 278 3.0 3.0 0.00 0.00 0.00 47 1004.4
20260505021524 46 244 2.0 2.0 0.00 0.00 0.00 48 1004.3
20260505021020 46 264 3.0 3.0 0.00 0.00 0.00 47 1004.3
20260505020515 46 294 3.0 3.0 0.00 0.00 0.00 47 1004.2
20260505020013 46 249 2.0 2.0 0.00 0.00 0.00 47 1004.2
20260505015509 46 254 2.0 2.0 0.00 0.00 0.00 47 1003.9
20260505015006 46 305 4.0 5.0 0.00 0.00 0.00 46 1004.0
20260505014503 46 289 1.0 2.0 0.00 0.00 0.00 47 1003.8
20260505014001 46 269 3.0 3.0 0.00 0.00 0.00 46 1003.8
20260505013457 46 280 2.0 2.0 0.00 0.00 0.00 47 1003.8
20260505012954 46 248 1.0 1.0 0.00 0.00 0.00 46 1003.8
20260505012453 46 302 2.0 2.0 0.00 0.00 0.00 46 1003.7
20260505011949 47 262 4.0 5.0 0.00 0.00 0.00 46 1003.6
20260505011445 47 338 3.0 3.0 0.00 0.00 0.00 44 1003.4
20260505010942 47 313 4.0 5.0 0.00 0.00 0.00 44 1003.5
20260505010438 48 223 4.0 5.0 0.00 0.00 0.00 44 1003.3
20260505005934 48 290 5.0 7.0 0.00 0.00 0.00 43 1003.4
20260505005431 48 318 6.0 7.0 0.00 0.00 0.00 43 1003.4
20260505004929 48 295 5.0 7.0 0.00 0.00 0.00 43 1003.5
20260505004425 48 291 6.0 7.0 0.00 0.00 0.00 43 1003.4
20260505003922 48 333 8.0 10.0 0.00 0.00 0.00 43 1003.4
20260505003419 48 279 9.0 11.0 0.00 0.00 0.00 45 1003.4
20260505002915 48 321 5.0 7.0 0.00 0.00 0.00 45 1003.3
20260505002412 48 359 9.0 11.0 0.00 0.00 0.00 45 1003.4
20260505001910 49 339 7.0 8.0 0.00 0.00 0.00 46 1003.3
20260505001408 49 337 10.0 16.0 0.00 0.00 0.00 45 1003.1
20260505000905 49 268 7.0 9.0 0.00 0.00 0.00 45 1002.9
20260505000403 50 349 8.0 10.0 0.00 0.00 0.00 44 1003.0
20260504235859 50 320 5.0 6.0 0.00 0.00 0.00 44 1002.8
20260504235356 50 326 7.0 8.0 0.00 0.00 0.00 44 1002.8
20260504234852 51 327 6.0 7.0 0.00 0.00 0.00 43 1002.6
20260504234350 51 327 10.0 16.0 0.00 0.00 0.00 42 1002.4
20260504233846 51 310 7.0 8.0 0.00 0.00 0.00 43 1002.4
20260504233342 51 26 12.0 16.0 0.00 0.00 0.00 43 1002.3
20260504232839 51 311 5.0 6.0 0.00 0.00 0.00 43 1002.1
20260504232336 51 348 7.0 8.0 0.00 0.00 0.00 42 1002.1
20260504231833 52 290 7.0 8.0 0.00 0.00 0.00 42 1002.2
20260504231329 52 342 5.0 6.0 0.00 0.00 0.00 40 1001.8
20260504230825 51 21 6.0 8.0 0.00 0.00 0.00 42 1001.9
20260504230323 51 335 5.0 6.0 0.00 0.00 0.00 43 1001.9
20260504225822 52 4 6.0 7.0 0.00 0.00 0.00 43 1001.9
20260504225318 52 352 6.0 7.0 0.00 0.00 0.00 42 1001.6
20260504224816 53 350 6.0 7.0 0.00 0.00 0.00 41 1001.6
20260504224312 52 316 4.0 5.0 0.00 0.00 0.00 42 1001.8